Regional Weather Roundup
Issued by NWS

Home | Current Version | Previous Version | Text Only | Print | Product List | Glossary Off
Versions: 1 2 3 4 5 6 7 8 9 10 11 12 13 14 15 16 17 18 19 20 21 22 23 24 25 26 27 28 29 30 31 32 33 34 35 36 37 38 39 40 41 42 43 44 45 46 47 48 49 50

000
ASUS43 KMKX 262320
RWRWI

WISCONSIN REGIONAL WEATHER ROUNDUP
NATIONAL WEATHER SERVICE MILWAUKEE/SULLIVAN WI
600 PM CDT THU APR 26 2018

NOTE: "FAIR" INDICATES FEW OR NO CLOUDS BELOW 12,000 FEET WITH NO
SIGNIFICANT WEATHER AND/OR OBSTRUCTIONS TO VISIBILITY.

WIZ001-002-006>008-014>016-023>028-270000-
NORTHWEST WISCONSIN

CITY           SKY/WX    TMP DP  RH WIND       PRES   REMARKS
SUPERIOR ARPT  FAIR      57  29  35 NE6       29.88F
ASHLAND        PTSUNNY   52  34  50 NE8       29.90R
HAYWARD        FAIR      56  33  42 N14       29.87R
SIREN          FAIR      61  26  26 N14       29.87R
CUMBERLAND     FAIR      57  30  35 N13       29.85R
RICE LAKE      PTSUNNY   58  32  36 N8        29.86R
CHETEK         FAIR      59  32  36 N8G17     29.83S
LADYSMITH      FAIR      55  38  51 N15G24    29.86R
EAU CLAIRE     FAIR      64  34  32 N15G26    29.80R
MENOMONIE      FAIR      64  30  28 W17       29.83R
NEW RICHMOND   FAIR      61  30  31 NW17G25   29.86R
OSCEOLA        FAIR      62  32  33 NW15G24   29.90R
$$

WIZ003>005-009-010-017-018-270000-
NORTH CENTRAL WISCONSIN

CITY           SKY/WX    TMP DP  RH WIND       PRES   REMARKS
MANITOWISH WTR CLOUDY    43  34  71 N9        29.86R
ARBOR VITAE    CLOUDY    47  35  64 N14       29.84R
WOODRUFF       CLOUDY    47  35  64 N14       29.84R
RHINELANDER    CLOUDY    51  33  50 N14G20    29.81R
EAGLE RIVER    FAIR      45  32  60 N12       29.83R
LAND O LAKES   CLOUDY    42  33  71 N12G18    29.86R
PHILLIPS       FAIR      49  35  58 N13G20    29.85R
TOMAHAWK       FAIR      52  32  46 N10G26    29.82R
MEDFORD        CLOUDY    59  35  40 NW13G18   29.77R
MERRILL        CLOUDY    61  33  35 NW9       29.76S
$$

WIZ029-030-035-036-043>047-270000-
CENTRAL WISCONSIN

CITY           SKY/WX    TMP DP  RH WIND       PRES   REMARKS
WAUSAU         CLOUDY    63  31  30 NW8       29.74F
MOSINEE        PTSUNNY   63  30  29 SW10      29.77F
MARSHFIELD     CLOUDY    62  33  33 W9        29.75F
STEVENS POINT  FAIR      64  29  26 SW10G16   29.77F
WAUPACA        FAIR      69  21  16 W12       29.77S
WAUTOMA        PTSUNNY   67  26  21 W15       29.78S
WISC RAPIDS    FAIR      67  27  22 W13G20    29.77F
CAMP DOUGLAS   FAIR      68  31  25 W12       29.77F
$$

WIZ011>013-019>022-031-037>040-048>050-270000-
NORTHEAST WISCONSIN

CITY           SKY/WX    TMP DP  RH WIND       PRES   REMARKS
ANTIGO         CLOUDY    58  34  39 W7        29.76F
SHAWANO        PTSUNNY   65  32  29 NW5       29.76S
OCONTO         PTSUNNY   64  31  28 W10       29.75F
STURGEON BAY   FAIR      54  38  54 S10       29.78F
GREEN BAY      FAIR      66  36  32 W9        29.77F
MANITOWOC      FAIR      52  36  54 S9        29.80F HAZE
APPLETON       PTSUNNY   64  23  20 SW8       29.76F
CLINTONVILLE   CLOUDY    65  26  22 NW7       29.76F
OSHKOSH        FAIR      65  31  28 SW9       29.78S
$$

WIZ032>034-041-042-053>061-270000-
SOUTHWEST WISCONSIN

CITY           SKY/WX    TMP DP  RH WIND       PRES   REMARKS
LA CROSSE      PTSUNNY   68  41  37 NW13      29.78F
SPARTA         FAIR      67  35  30 W10G18    29.79S
VIROQUA        FAIR      64  39  40 W10G17    29.80F
BOSCOBEL       FAIR      70  31  23 W13G22    29.80S
PRAIRIE DU CHI FAIR      69  29  23 W13       29.80F
PLATTEVILLE    FAIR      70  28  21 W15G22    29.81F
$$

WIZ056-057-062-063-064-067-068-270000-
SOUTH CENTRAL WISCONSIN

CITY           SKY/WX    TMP DP  RH WIND       PRES   REMARKS
REEDSBURG      PTSUNNY   67  30  25 W13       29.78S
BARABOO/DELLS  FAIR      68  23  18 SW12G20   29.79S
LONE ROCK      FAIR      68  30  24 W10       29.79S
MINERAL POINT  FAIR      70  27  19 W12       29.80F
MADISON        PTSUNNY   66  31  27 VRB5      29.80F
MIDDLETON      FAIR      68  24  18 W9        29.80F
WATERTOWN      FAIR      65  28  24 W7        29.80F
MONROE         FAIR      68  28  22 W13       29.81F
JANESVILLE     PTSUNNY   70  25  18 W6        29.82F
$$

WIZ051-052-058>065-066-070>072-270000-
SOUTHEAST WISCONSIN

CITY           SKY/WX    TMP DP  RH WIND       PRES   REMARKS
MILWAUKEE      PTSUNNY   61  32  33 S12       29.83F
WAUKESHA       SUNNY     63  28  27 SW9       29.83F
MILWAUKEE/TIMM SUNNY     64  21  19 W9G16     29.82F
RACINE         FAIR      54  26  34 S13       29.85F
BURLINGTON     FAIR      66  30  26 SW12      29.82F
KENOSHA        FAIR      59  29  31 S10       29.84S
FOND DU LAC    FAIR      65  26  23 SW10      29.79S
SHEBOYGAN      FAIR      59  37  44 S9        29.80S
WEST BEND      FAIR      64  27  24 W12       29.80S
JUNEAU         FAIR      64  27  24 SW14      29.82S
$$

LSZ147-162-270000-
LAKE SUPERIOR

STATION/POSITION TIME  TEMP    WIND        PRES    WAVE
                       AIR SEA DIR/SP/G            HT/PER
                 (UTC) (F)     (DEG/KT/KT) (MB)    (FT/S)
DEVILS ISLAND    2300   47     130/  5/  6 1012.8R
SAXON HARBOR     2230   42     310/  3/  4 1012.2R
$$

LMZ867-665-643>646-270000-
LAKE MICHIGAN

STATION/POSITION TIME  TEMP    WIND        PRES    WAVE
                       AIR SEA DIR/SP/G            HT/PER
                 (UTC) (F)     (DEG/KT/KT) (MB)    (FT/S)
NORTHPORT PIER   2240   47                 1008.1F
KEWAUNEE LAKESHO 2254   44     180/ 16/ 18 1008.4F
SHEBOYGAN LAKESH 2300   43     170/ 19/ 20 1009.6F
PORT WASHINGTON  2240   46     180/  9/ 11 1010.8F
MILWAUKEE LAKESH 2300   45     140/ 17/ 19   N/A
KENOSHA   LAKESH 2300   50                 1010.8
$$

TC  - TEMPERATURE IN CELSIUS
VSB - VISIBILITY IN STATUTE MILES
WCI - WIND CHILL INDEX
HX  - HEAT INDEX




USA.gov is the U.S. government's official web portal to all federal, state and local government web resources and services.